Find Starlink 38369

NORAD ID: 100511 Int'l Des: 2026-197 Owner: SPXS Country: US Constellation: starlink operational

Current View

Loading 3D Globe...

About Starlink 38369

Starlink 38369 (NORAD 100511) is a starlink constellation satellite launched Aug 26, 2026 by SPXS of US. with a mass of 575.00 kg.

Upcoming Passes

Passes for default location (London). Set your location on the main map for personalized predictions.

Altitude History

Loading altitude history...

Two-Line Element Set

1 A0511U 26197K 26263.64077967 .00120955 00000-0 71571-3 0 9993
2 A0511 70.0001 121.1604 0003655 274.3665 85.7117 15.77584724 4018
Epoch: Sep 20, 2026 • Age: 11 hours

Current Status

Altitude 347.6 km
Apogee / Perigee N/A
Velocity 7.70 km/s
Sub-Earth Point 54.41°N, 128.61°W
Launch Date Aug 26, 2026
Age 25 days
Type internet

Technical Details

Classification Payload
Mass 575.00 kg
Dry Mass 530.00 kg
Length 0.30 m
Span 29.00 m
Shape ? Box + pan
Manufacturer SPXS
Bus Type Starlink V2MO
Phase Status In Orbit
Owner/State SPXS/US

Most Searched